Home   Weather   Vellore   Past weeks

Flag for India Past Weather in Vellore, Tamil Nadu, India — Yesterday and Last 2 Weeks

Now
84 °F

Scattered clouds.


Feels Like: 92 °F
Forecast: 78 / 92 °F
Wind: 9 mph from Southwest

Location: Madras / Minambakkam

Current Time: Aug 21, 2017 at 8:32:35 am

Latest Report: Aug 21, 2017 at 8:00 am


Visibility: 4 mi

Pressure: 29.68 "Hg

Humidity: 74%

Dew Point: 75 °F

Location of VelloreLocation

Past Weather in Vellore — Graph

°F

Vellore Temperature Yesterday

Maximum temperature yesterday: 91 °F (at 12:00 pm)
Minimum temperature yesterday: 79 °F (at 12:30 am)
Average temperature yesterday: 84 °F

High & Low Weather Summary for the Past Weeks

 TemperatureHumidityPressure
High99 °F (Aug 6, 2:00 pm)100% (Aug 11, 6:30 pm)31.23 "Hg (Aug 11, 6:30 pm)
Low75 °F (Aug 18, 1:30 am)42% (Aug 6, 2:30 pm)29.53 "Hg (Aug 6, 4:00 pm)
Average85 °F77%29.70 "Hg
* Reported Aug 6 6:30 am — Aug 21 7:00 am, Vellore. Weather by CustomWeather, © 2017

Note: Actual official high and low records may vary slightly from our data, if they occured in-between our weather recording intervals... More about our weather records

Advertising

Vellore Weather History for the Previous 24 Hours

Scroll right to see more
 ConditionsComfort  
Time TempWeatherWind HumidityBarometerVisibility
7:00 am
Mon, Aug 21
81 °FScattered clouds.7 mph84%29.68 "Hg4 mi
6:30 am81 °FScattered clouds.5 mph84%29.65 "Hg4 mi
5:30 am79 °FPassing clouds.3 mph89%29.65 "Hg4 mi
5:00 am81 °FPassing clouds.5 mph84%29.62 "Hg4 mi
4:30 am81 °FPassing clouds.7 mph84%29.62 "Hg4 mi
4:00 am81 °FPassing clouds.9 mph84%29.62 "Hg4 mi
3:30 am81 °FPassing clouds.9 mph84%29.62 "Hg4 mi
3:00 am81 °FPassing clouds.7 mph84%29.62 "Hg4 mi
2:30 am81 °FPassing clouds.7 mph84%29.62 "Hg4 mi
2:00 am81 °FPassing clouds.9 mph79%29.62 "Hg4 mi
1:30 am81 °FPassing clouds.9 mph79%29.65 "Hg4 mi
12:30 am81 °FPassing clouds.7 mph79%29.68 "Hg4 mi
12:00 am81 °FPassing clouds.7 mph79%29.68 "Hg4 mi
11:30 pm
Sun, Aug 20
81 °FPassing clouds.8 mph79%29.71 "Hg4 mi
11:00 pm81 °FPassing clouds.9 mph79%29.71 "Hg4 mi
10:30 pm81 °FPassing clouds.5 mph79%29.68 "Hg4 mi
10:00 pm81 °FPassing clouds.5 mph79%29.68 "Hg4 mi
9:30 pm81 °FPassing clouds.5 mph79%29.68 "Hg4 mi
9:00 pm81 °FPassing clouds.8 mph79%29.65 "Hg4 mi
8:30 pm82 °FPassing clouds.12 mph74%29.65 "Hg4 mi
8:00 pm82 °FPartly cloudy.9 mph74%29.59 "Hg4 mi
7:30 pm82 °FPartly cloudy.9 mph79%29.59 "Hg4 mi
7:00 pm88 °FPartly cloudy.7 mph70%29.59 "Hg4 mi
6:00 pm88 °FBroken clouds.9 mph70%29.56 "Hg4 mi
5:30 pm90 °FBroken clouds.12 mph67%29.56 "Hg4 mi
5:00 pm90 °FBroken clouds.12 mph63%29.53 "Hg4 mi
4:30 pm90 °FBroken clouds.12 mph63%29.56 "Hg4 mi
4:00 pm90 °FBroken clouds.12 mph63%29.56 "Hg4 mi
3:30 pm90 °FBroken clouds.12 mph59%29.56 "Hg4 mi
3:00 pm90 °FScattered clouds.14 mph63%29.56 "Hg4 mi
2:30 pm91 °FScattered clouds.14 mph56%29.59 "Hg4 mi
2:00 pm91 °FScattered clouds.14 mph56%29.59 "Hg4 mi
1:30 pm91 °FScattered clouds.12 mph56%29.62 "Hg4 mi
1:00 pm91 °FScattered clouds.10 mph59%29.62 "Hg4 mi
12:30 pm91 °FScattered clouds.12 mph56%29.65 "Hg4 mi
12:00 pm91 °FScattered clouds.10 mph59%29.65 "Hg4 mi
11:30 am90 °FScattered clouds.10 mph63%29.65 "Hg4 mi
11:00 am88 °FBroken clouds.10 mph62%29.68 "Hg4 mi
10:30 am88 °FBroken clouds.10 mph62%29.68 "Hg4 mi
10:00 am88 °FBroken clouds.10 mph66%29.68 "Hg4 mi
9:30 am86 °FBroken clouds.10 mph70%29.68 "Hg4 mi
9:00 am84 °FBroken clouds.9 mph74%29.68 "Hg4 mi
8:30 am84 °FFog.9 mph74%29.68 "Hg3 mi
8:00 am82 °FFog.5 mph79%29.68 "Hg3 mi
Weather by CustomWeather, © 2017

See weather overviewHow to use our weather pages